Regional Weather Roundup
Issued by NWS

Home | Current Version | Previous Version | Text Only | Print | Product List | Glossary Off
Versions: 1 2 3 4 5 6 7 8 9 10 11 12 13 14 15 16 17 18 19 20 21 22 23 24 25 26 27 28 29 30 31 32 33 34 35 36 37 38 39 40 41 42 43 44 45 46 47 48 49 50

005
ASUS43 KBIS 272210
RWRND

NORTH DAKOTA REGIONAL WEATHER ROUNDUP
NATIONAL WEATHER SERVICE BISMARCK ND
500 PM CDT SAT MAY 27 2017

NOTE: "FAIR" INDICATES FEW OR NO CLOUDS BELOW 12,000 FEET WITH NO
SIGNIFICANT WEATHER AND/OR OBSTRUCTIONS TO VISIBILITY.


NDZ001>003-009>011-017-272300-
NORTHWEST NORTH DAKOTA

CITY           SKY/WX    TMP DP  RH WIND       PRES   REMARKS
WILLISTON      FAIR      69  45  41 NE12      29.84S
MINOT          LGT RAIN  53  49  86 NW21G30   29.83R
MINOT AFB      PTSUNNY   54  49  83 NW7       29.80F
$$

NDZ018>021-031>035-040>046-272300-
SOUTHWEST NORTH DAKOTA

CITY           SKY/WX    TMP DP  RH WIND       PRES   REMARKS
BISMARCK       FAIR      76  36  23 W18G24    29.79F
DICKINSON      FAIR      72  32  23 W17G32    29.83S
GARRISON         N/A     54  50  86 N22G31    29.85R
HETTINGER ARPT CLOUDY    66  40  38 NW18G32   29.91R
$$

NDZ004>008-012>016-024-026-027-054-272300-
NORTHEAST NORTH DAKOTA

CITY           SKY/WX    TMP DP  RH WIND       PRES   REMARKS
GRAND FORKS    MOSUNNY   78  40  25 SW14      29.70F
GRND FRKS AFB  MOSUNNY   75  39  27 W13G20    29.71F
DEVILS LAKE    FAIR      69  40  34 W15       29.73S
$$

NDZ022-023-025-028>030-036>039-047>053-272300-
SOUTHEAST NORTH DAKOTA

CITY           SKY/WX    TMP DP  RH WIND       PRES   REMARKS
FARGO          MOSUNNY   78  38  23 SW17G23   29.73F
JAMESTOWN      FAIR      74  41  30 W14       29.76F
$$





USA.gov is the U.S. government's official web portal to all federal, state and local government web resources and services.